Regional Weather Roundup
Issued by NWS

Home | Current Version | Previous Version | Graphics & Text | Print | Product List | Glossary On
Versions: 1 2 3 4 5 6 7 8 9 10 11 12 13 14 15 16 17 18 19 20 21 22 23 24 25 26 27 28 29 30 31 32 33 34 35 36 37 38 39 40 41 42 43 44 45 46 47 48 49 50
000
ASUS43 KLMK 211502
RWRKY
KENTUCKY REGIONAL WEATHER ROUNDUP
NATIONAL WEATHER SERVICE LOUISVILLE KY
1100 AM EDT MON AUG 21 2017

NOTE "FAIR" INDICATES FEW OR NO CLOUDS BELOW 12,000 FEET
WITH NO SIGNIFICANT WEATHER AND/OR OBSTRUCTIONS TO VISIBILITY.

KYZ001>023-026-027-061>063-070>075-211600-
WESTERN AND SOUTH CENTRAL KENTUCKY

CITY           SKY/WX    TMP DP  RH WIND       PRES   REMARKS
PADUCAH        SUNNY     87  72  60 S6        30.14S HX  93
HENDERSON      SUNNY     85  71  63 SW7       30.15R HX  90
OWENSBORO      SUNNY     84  72  67 S6        30.15F
HOPKINSVILLE   SUNNY     86  71  60 SW3       30.16S HX  92
BOWLING GREEN  SUNNY     85  71  63 W5        30.18S HX  90
GLASGOW        MOSUNNY   85  71  61 CALM      30.18F HX  90
$$

KYZ024-025-028>034-038-045-046-053-211600-
NORTH CENTRAL KENTUCKY

CITY           SKY/WX    TMP DP  RH WIND       PRES   REMARKS
LOUISVILLE/SDF PTSUNNY   88  67  49 SW5       30.16S HX  91
LOUISVILLE/LOU MOSUNNY   86  69  56 VRB5      30.17R HX  90
FORT KNOX      SUNNY     87  68  54 SW5       30.16S HX  90
$$

KYZ035>037-039>044-047>052-055>060-089>105-211600-
NORTHEAST KENTUCKY

CITY           SKY/WX    TMP DP  RH WIND       PRES   REMARKS
LEXINGTON      SUNNY     85  68  56 S5        30.21R
COVINGTON      MOSUNNY   84  71  65 SW5       30.17S
FRANKFORT      MOSUNNY   85  70  60 SW3       30.18R
$$

KYZ054-064>069-076>088-106>120-211600-
SOUTHEAST KENTUCKY

CITY           SKY/WX    TMP DP  RH WIND       PRES   REMARKS
JACKSON        SUNNY     81  70  69 CALM      30.24S
LONDON         SUNNY     81  69  67 VRB5      30.23F
SOMERSET       NOT AVBL
MIDDLESBORO    SUNNY     76  70  82 CALM      30.26S
MONTICELLO     SUNNY     85  73  67 N8        30.23S HX  91
$$





USA.gov is the U.S. government's official web portal to all federal, state and local government web resources and services.